Jackpot

Texas Poker Multi Jackpot System

Kini Telah hadir Jackpot SUPER ROYAL FLUSH

Kini Telah hadir Jackpot 2000 (khusus table VIP keatas).

Ikutilah global jackpot yang tersedia di system kami, dengan system jackpot terbaru dan pertama di indonesia, anda dapat membeli jackpot dengan harga 100 rupiah saja dan menangkan hadiahnya hingga puluhan juta rupiah.

Jackpot bukanlah suatu keharusan untuk dibeli, namun kami memberikan suatu fitur tambahan untuk member tercinta dari www.kartuasqq.com.

Terdapat tiga pilihan harga jackpot yang bisa anda beli yaitu :100,500,1000 dan 2000(khusus table VIP Keatas) rupiah.

Hadiah dari Multi jackpot system www.kartuasqq.com

  1. full house x 10 harga jackpot yang anda beli.
      (contoh:anda membeli 1000 maka:1000 X10 = 10.000)
  2. four of kind x 250 harga jackpot yang anda beli
      (contoh:anda membeli 1000 maka:1000 X250 = 250.000)
  3. Straight flush x 1200
      (contoh:anda membeli 1000 maka:1000 X1200 = 1.200.000)
  4. Royal flush x 10000 harga jackpot yang anda beli
      (contoh:anda membeli 1000 maka:1000 X10000 = 10.000.000)
  5. SUPER ROYAL FLUSH x 30000 harga jackpot yang anda beli
      (contoh:anda membeli 1000 maka:1000 X30000 = 30.000.000)

Kondisi kartu

  1. full house adalah kondisi kartu dimana kartu anda dan kartu tengah dengan total 7 kartu bisa mendapatkan nilai 5 kartu dengan kombinasi 1 tris(three of kind) dan 1 pair, contoh 3 kartu 10 dan 2 kartu 5
  2. Four of kind adalah kondisi kartu dimana kartu anda dan kartu tengah dengan total 7 kartu bisa mendapatkan nilai 5 kartu dengan kombinasi 4 kartu yang sama jumlah dan 1 kartu apapun juga contoh anda mendapatkan 4 buah kartu angka 3 dan 1 kartu apapun.
  3. Staright flush adalah kondisi kartu dimana kartu anda dan kartu tengah dengan total 7 kartu bisa mendapatkan nilai 5 kartu dengan kombinasi seri / staright dengan kembang yang sama contoh : urutan kartu dari angka 5, 6, 7, 8 , 9 10 dengan kembang yg sama misalnya as hati
  4. Royal flush adalah kondisi kartu dimana kartu anda dan kartu tengah dengan total 7 kartu bisa mendapatkan nilai 5 kartu dengan kombinasi seri / staright dengan kembang yang sama tetapi kartu tersebut haruslah dimulai dari 10. contoh 10, Queen, Jack, King dan aces dengan kembang yang sama
  5. Super Royal flush adalah kondisi kartu dimana Kedua kartu anda digabung dengan 3 kartu pertama meja haruslah royal flush. contoh kartu anda 10,Queen kembang sama dan 3 kartu pertama meja adalah Jack, King dan aces dengan kembang yang sama

Demikian adalah penjelasan dari Multi Jackpot www.kartuasqq.com terima kasih dan selamat bermain salam hoki dari kami

Texas Poker Jackpot Winner

TOP SUPER ROYAL FLUSH
No.TanggalNamaPriceWin
119/08 18:08TORES4DSuper Royal flush15,000,000
219/08 15:20HERU447Super Royal flush6,000,000
319/08 11:52E049306FSuper Royal flush3,000,000
419/08 02:49RD1515Super Royal flush3,000,000
519/08 01:39BIGBRO303Super Royal flush6,000,000
TOP ROYAL FLUSH
No.TanggalNamaPriceWin
119/08 20:16TJK08Royal flush2,000,000
219/08 20:05XVRGHLA1JJRoyal flush1,000,000
319/08 19:54MEYES0808Royal flush1,000,000
419/08 19:51SERBABISARoyal flush2,000,000
519/08 19:49JAMETNCIRoyal flush2,000,000
TOP STRAIGHT FLUSH
No.TanggalNamaPriceWin
119/08 20:32JPBUI24Straight Flush120,000
219/08 20:32NILACINTA1Straight Flush600,000
319/08 20:27ANSOYStraight Flush1,200,000
419/08 20:27K3P4R7Straight Flush240,000
519/08 20:26SENTUN69Straight Flush1,200,000
LATEST JACKPOT
No.TanggalNamaPriceWin
119/08 20:32JPBUI24Straight Flush120,000
219/08 20:32BONGKAR26Full House2,000
319/08 20:32BEJAKOFull House20,000
419/08 20:32EBB81A78Full House2,000
519/08 20:32CEKBOMFull House5,000
619/08 20:32F2AEE903Full House2,000
719/08 20:32ANDASXFour Of A Kind125,000
819/08 20:32KARNO99Full House20,000
919/08 20:32AKAN_DAH00Full House1,000
1019/08 20:32ANGGAWPFull House500
1119/08 20:32MAMASYNG12Full House2,000
1219/08 20:32DENISAKUFull House10,000
1319/08 20:32MAHABANAFull House5,000
1419/08 20:32JUDITUDOSAFull House10,000
1519/08 20:32SAPA122Full House10,000
1619/08 20:32MEMEKKEFull House5,000
1719/08 20:32LANCARKAN_Full House10,000
1819/08 20:32RAFLIADJYFull House2,000
1919/08 20:32TEMPUYAK90Full House2,000
2019/08 20:32WAHYUPRASEFull House5,000
2119/08 20:32SKABIMITH8Full House1,000
2219/08 20:32UTUSANFull House1,000
2319/08 20:32DWTSAYANGKUFour Of A Kind25,000
2419/08 20:32PUTIH1305Full House2,000
2519/08 20:32LIANJIE01Four Of A Kind25,000
2619/08 20:32PTIBHP88Full House20,000
2719/08 20:32ADI4014Full House1,000
2819/08 20:32DWTBETTY1Full House1,000
2919/08 20:32BADER82Full House2,000
3019/08 20:32RAPOT01Full House2,000
3119/08 20:32KOLONOFull House10,000
3219/08 20:32HOKKY5454Full House1,000
3319/08 20:32ASYIF4KUFull House2,000
3419/08 20:32NILACINTA1Straight Flush600,000
3519/08 20:32XFORCEFull House5,000
3619/08 20:32LANDEUHFull House2,000
3719/08 20:32BAM22Full House10,000
3819/08 20:32IND1G021Full House2,000
3919/08 20:32BUJHEL00Full House500
4019/08 20:32YADI92Full House5,000
4119/08 20:32BACODES11Full House5,000
4219/08 20:32DWBTOZ69Full House20,000
4319/08 20:32MASSTER250Full House5,000
4419/08 20:32TAPE7Full House5,000
4519/08 20:32BOSBESARFull House1,000
4619/08 20:32TAYOTITEMFull House2,000
4719/08 20:32WGUV5E8Q2MFull House2,000
4819/08 20:32ELIYANA75Full House2,000
4919/08 20:32TUTOANDI02Full House2,000
5019/08 20:32ANTRI2Full House2,000

Domino Multi Jackpot System

Ikutilah global jackpot yang tersedia di system kami, dengan system jackpot terbaru dan pertama di indonesia, anda dapat membeli jackpot dengan harga 100 rupiah saja dan menangkan hadiahnya hingga puluhan juta rupiah.

Jackpot bukanlah suatu keharusan untuk dibeli, namun kami memberikan suatu fitur tambahan untuk member tercinta dari www.kartuasqq.com.

Terdapat tiga pilihan harga jackpot yang bisa anda beli yaitu :100,500 dan 1000 rupiah.

Hadiah dari Multi jackpot system www.kartuasqq.com

  1. Murni Kecil x 50 harga jackpot yang anda beli.
      (contoh:anda membeli 1000 maka:1000 X 50 = 50.000)
  2. Murni Besar x 50 harga jackpot yang anda beli
      (contoh:anda membeli 1000 maka:1000 X 50 = 50.000)
  3. BALAK x 100 harga jackpot yang anda beli
      (contoh:anda membeli 1000 maka:1000 X 100 = 100.000)
  4. ENAM DEWA x 6666 harga jackpot yang anda beli
      (contoh:anda membeli 1000 maka:1000 X 6666 = 6.666.000)

Demikian adalah penjelasan dari Multi Jackpot www.kartuasqq.com terima kasih dan selamat bermain salam hoki dari kami

Domino Jackpot Winner

TOP ENAM DEWA
No.TanggalNamaPriceWin
119/08 20:00ADRNEmurni enam3,333,000
219/08 19:31BANUN77murni enam6,666,000
319/08 19:20RIENIEmurni enam3,333,000
419/08 18:37ALIF70murni enam6,666,000
519/08 17:21JEVRI12murni enam6,666,000
TOP BALAK
No.TanggalNamaPriceWin
119/08 20:32RAVINUS23balak50,000
219/08 20:30HARUM1919balak100,000
319/08 20:28SEMENEWbalak10,000
419/08 20:27VARYO75balak100,000
519/08 20:15RAYAP80balak100,000
LATEST JACKPOT
No.TanggalNamaPriceWin
119/08 20:32QO51Mmurni besar5,000
219/08 20:32MREZA8880murni kecil25,000
319/08 20:32E03DFDBDmurni kecil5,000
419/08 20:32RAVINUS23balak50,000
519/08 20:31ALLU0186murni besar25,000
619/08 20:31KUDO1688murni besar5,000
719/08 20:30HARUM1919balak100,000
819/08 20:30JAYAA6murni kecil5,000
919/08 20:30MANSAR91murni kecil25,000
1019/08 20:29SARIDIN12murni kecil50,000
1119/08 20:29SUDE888murni besar50,000
1219/08 20:28AWAK_UYUHmurni besar50,000
1319/08 20:28DN4DPAGIS27murni kecil5,000
1419/08 20:28SEMENEWbalak10,000
1519/08 20:27GOBANG28murni kecil5,000
1619/08 20:27SHALQ12murni kecil25,000
1719/08 20:27VARYO75balak100,000
1819/08 20:27RAGASA66murni kecil50,000
1919/08 20:25BCA_DIMSmurni kecil25,000
2019/08 20:25GETIH25murni kecil50,000
2119/08 20:24MB0EDmurni besar50,000
2219/08 20:24LADHANKA08murni besar50,000
2319/08 20:23GADUH_MANGmurni besar50,000
2419/08 20:23CHAY123murni kecil5,000
2519/08 20:23JAYAA6murni kecil5,000
2619/08 20:23BO123Xmurni kecil50,000
2719/08 20:22JEHANUmurni kecil50,000
2819/08 20:22LASDOP87murni besar50,000
2919/08 20:21IDK899648murni besar5,000
3019/08 20:21NAGER087murni kecil25,000
3119/08 20:20DE813C38lucky992,500
3219/08 20:19MREZA8880murni besar50,000
3319/08 20:19DDB84DA8murni besar25,000
3419/08 20:19DZAMDNL89murni besar25,000
3519/08 20:19REMON35murni besar5,000
3619/08 20:18DIADU999murni besar25,000
3719/08 20:18B84AN436murni kecil50,000
3819/08 20:18PONDRA11murni kecil50,000
3919/08 20:16TAKUR983murni kecil50,000
4019/08 20:16BALAKOSA81murni kecil50,000
4119/08 20:16CHILOENKmurni besar50,000
4219/08 20:15RAYAP80balak100,000
4319/08 20:15DEWWImurni besar25,000
4419/08 20:14AZREL77murni besar25,000
4519/08 20:13ADIMULAZATbalak10,000
4619/08 20:13B84AN436lucky9910,000
4719/08 20:13NAGACA11murni kecil5,000
4819/08 20:13NYASAR02murni besar25,000
4919/08 20:12NCUPAYENlucky9925,000
5019/08 20:12E03DFDBDmurni kecil5,000

Ceme Multi Jackpot System

Jackpot dilihat dari gabungan kartu pemain dengan kartu bandar. Bandar harus membeli jackpot sebanyak jumlah player yang sedang duduk. Sebagai contoh bila terdapat 3 pemain duduk bermain, dan bandar memutuskan untuk membeli jackpot Rp 1.000, maka pada periode tersebut bandar akan membeli jackpot sebanyak 3xRp1.000 = Rp3.000.

Jackpot bukanlah suatu keharusan untuk dibeli, namun kami memberikan suatu fitur tambahan untuk member tercinta dari www.kartuasqq.com.

Terdapat tiga pilihan harga jackpot yang bisa anda beli yaitu :100,500 dan 1000 rupiah.

Hadiah dari Multi jackpot system www.kartuasqq.com

  1. Murni Kecil x 50 harga jackpot yang anda beli.
      (contoh:anda membeli 1000 maka:1000 X 50 = 50.000)
  2. Murni Besar x 50 harga jackpot yang anda beli
      (contoh:anda membeli 1000 maka:1000 X 50 = 50.000)
  3. BALAK x 200 harga jackpot yang anda beli
      (contoh:anda membeli 1000 maka:1000 X 200 = 200.000)
  4. ENAM DEWA x 6666 harga jackpot yang anda beli
      (contoh:anda membeli 1000 maka:1000 X 6666 = 6.666.000)

Demikian adalah penjelasan dari Multi Jackpot www.kartuasqq.com terima kasih dan selamat bermain salam hoki dari kami

Ceme Jackpot Winner

TOP ENAM DEWA
No.TanggalNamaPriceWin
119/08 20:32UNGGUL877murni enam3,333,000
219/08 20:32GEDDUGmurni enam6,666,000
319/08 20:32CJ200489murni enam6,666,000
419/08 20:32S1H4777murni enam3,333,000
519/08 20:31VGOBRAYmurni enam6,666,000
TOP BALAK
No.TanggalNamaPriceWin
119/08 20:32DINAR85balak100,000
219/08 20:32BANDUNG001balak200,000
319/08 20:32PKWONbalak200,000
419/08 20:32FADEL441balak200,000
519/08 20:31SEX70balak200,000
LATEST JACKPOT
No.TanggalNamaPriceWin
119/08 20:32EG79murni kecil50,000
219/08 20:32DOY1705murni kecil5,000
319/08 20:32DASRILARImurni besar50,000
419/08 20:32BUNGKUS10murni besar25,000
519/08 20:32DINAR85balak100,000
619/08 20:32UNGGUL877murni enam3,333,000
719/08 20:32GEDDUGmurni enam6,666,000
819/08 20:32BANDUNG001balak200,000
919/08 20:32PKWONbalak200,000
1019/08 20:32FADEL441balak200,000
1119/08 20:32CJ200489murni enam6,666,000
1219/08 20:32S1H4777murni enam3,333,000
1319/08 20:32NOODLEmurni kecil50,000
1419/08 20:32F4IZ77murni kecil25,000
1519/08 20:32SOMSE88murni kecil25,000
1619/08 20:32PELIMmurni besar50,000
1719/08 20:31SEX70balak200,000
1819/08 20:31PECELLELEmurni kecil50,000
1919/08 20:31ADEL009LLbalak200,000
2019/08 20:31IPOY21balak20,000
2119/08 20:31BAFE252Amurni kecil25,000
2219/08 20:31VGOBRAYmurni enam6,666,000
2319/08 20:31ADECIKAL99balak20,000
2419/08 20:31NOVRIZA141balak200,000
2519/08 20:31MISBAH310murni kecil50,000
2619/08 20:31CHOPER88balak20,000
2719/08 20:31CG6BBST2NMmurni kecil50,000
2819/08 20:31KEBAKUNGANmurni besar25,000
2919/08 20:30THEMASTHERmurni besar5,000
3019/08 20:30HURY96murni besar50,000
3119/08 20:30TIMPOL86balak200,000
3219/08 20:30ZIBRAN11balak20,000
3319/08 20:30ANA_ARUSmurni kecil50,000
3419/08 20:30VJKJJB9GSBmurni kecil50,000
3519/08 20:30EG79murni kecil50,000
3619/08 20:30DAFTAR_WDmurni kecil25,000
3719/08 20:30STEEYRJRbalak20,000
3819/08 20:30JANAH54murni besar50,000
3919/08 20:30PUKYCROTmurni kecil5,000
4019/08 20:30T14Nmurni kecil5,000
4119/08 20:30PUKYCROTmurni kecil5,000
4219/08 20:30GORGOM24murni kecil25,000
4319/08 20:30KARDI90murni kecil5,000
4419/08 20:29K0BOY862balak100,000
4519/08 20:29SONIA06balak100,000
4619/08 20:29CANIN28balak200,000
4719/08 20:29BP887889balak200,000
4819/08 20:29A5323673murni kecil25,000
4919/08 20:29BABEH63murni kecil5,000
5019/08 20:29BA124murni besar50,000